Back to catalog

FENGYUN 1C DEB

AlivePO
NORAD 30493·DEBRIS·🇨🇳 China

Launched May 10, 1999 from Taiyuan Satellite Launch Center

Loading…

Next Passes (next 24 hours)

TLE

FreshSource: Space-Track

Epoch: Sep 14, 2026, 11:09 UTC

1 30493U 99025AHF 26257.46480598  .00001386  00000-0  93525-3 0  9995
2 30493  98.5834  73.1289 0181885 172.6683 216.4364 13.94269485989364

Track FENGYUN 1C DEB in real time with AllMySat

Download on the App Store